{"data":{"norad_id":65509,"epoch":"2026-09-20T20:54:40.343328Z","epoch_age_seconds":79898,"freshness":"FRESH","line1":"1 65509U 25198T   26263.87130027  .00023351  00000+0  69987-3 0  9992","line2":"2 65509  53.1590  80.1152 0000921 102.4483 257.6623 15.34409354 58564","mean_motion":15.34409354,"eccentricity":9.21e-5,"inclination_deg":53.159,"raan_deg":80.1152,"arg_perigee_deg":102.4483,"mean_anomaly_deg":257.6623,"bstar":0.00069987,"rev_number":5856,"period_min":93.847185970687,"perigee_km":462.04539946351,"apogee_km":463.30547711464,"semimajor_km":6840.8124382891,"source":"CELESTRAK","updated_at":"2026-09-21T09:00:35.644783Z"}}